www.pogodaiklimat.ru
ПОГОДА в Никшиче

Архив погоды в Никшиче (Черногория)

Время
(UTC), дата
03 19.05
04 19.05
05 19.05
06 19.05
07 19.05
08 19.05
09 19.05
10 19.05
11 19.05
12 19.05
13 19.05
14 19.05
15 19.05
16 19.05
18 19.05
19 19.05
20 19.05
21 19.05
03 20.05
04 20.05
05 20.05
06 20.05
07 20.05
08 20.05
09 20.05
10 20.05
11 20.05
12 20.05
13 20.05
14 20.05
15 20.05
16 20.05
17 20.05
18 20.05
19 20.05
20 20.05
21 20.05
03 21.05
04 21.05
05 21.05
06 21.05
07 21.05
08 21.05
09 21.05
10 21.05
11 21.05
12 21.05
13 21.05
14 21.05
15 21.05
16 21.05
17 21.05
18 21.05
19 21.05
20 21.05
21 21.05
03 22.05
04 22.05
05 22.05
06 22.05
07 22.05
08 22.05
09 22.05
10 22.05
11 22.05
12 22.05
13 22.05
14 22.05
15 22.05
16 22.05
17 22.05
18 22.05
19 22.05
20 22.05
21 22.05
03 23.05
04 23.05
05 23.05
06 23.05
07 23.05
08 23.05
09 23.05
10 23.05
11 23.05
12 23.05
13 23.05
14 23.05
15 23.05
16 23.05
17 23.05
18 23.05
19 23.05
20 23.05
21 23.05
03 24.05
04 24.05
05 24.05
06 24.05
07 24.05
08 24.05
09 24.05
10 24.05
11 24.05
12 24.05
13 24.05
14 24.05
15 24.05
16 24.05
17 24.05
18 24.05
19 24.05
20 24.05
21 24.05
03 25.05
05 25.05
06 25.05
07 25.05
08 25.05
09 25.05
10 25.05
11 25.05
12 25.05
13 25.05
14 25.05
15 25.05
16 25.05
17 25.05
18 25.05
19 25.05
20 25.05
21 25.05
Ветер
(напр.,м/с)
Видим. Явления Облачность Т
(С)
Тd
(С)
f
(%)
Тe
(С)
Тes
(С)
Комфортность P
(гПа)
Po
(гПа)
Тmin
(С)
Tmax
(С)
R
(мм)
R24
(мм)
S
(см)
С 4 20 км ясно +9.2 +4.7 73 +6 +6 1025.5 939.7
С 4 20 км ясно +8.7 +4.2 73 +6 +6 1025.5 939.7
С 4 20 км ясно +10.2 +5.1 71 +8 +9 1026.2 950.2
С 3 20 км ясно +12.7 +5.6 62 +11 +15 1026.6 951.1 +8.7
С 2 20 км ясно +17.0 +9.2 60 +17 +26 1015.5 951.3
С 4 20 км ясно +18.4 +9.4 56 +19 +27 1015.3 951.4
С 2 20 км ясно +20.0 +9.6 51 +22 +38 комфорт 1025.0 951.5
З 3 20 км ясно +20.8 +8.3 45 +23 +38 комфорт 1024.9 951.7
З 1 20 км ясно +22.4 +9.7 44 +24 +46 комфорт 1024.5 951.5
С 5 20 км ясно +22.8 +8.1 39 +24 +33 комфорт 1023.7 951.0
С 5 20 км ясно +23.5 +7.0 35 +24 +32 комфорт 1023.9 951.0
В 1 20 км ясно +24.1 +5.8 31 +24 +37 комфорт 1023.3 950.6
С 3 20 км ясно +24.3 +5.8 30 +24 +30 комфорт 1023.2 950.5
штиль 0 20 км ясно +22.8 +7.0 36 +24 +28 комфорт 1023.4 950.5
Ю 4 20 км ясно +19.1 +6.2 43 +20 +20 1025.3 951.1 +24.4
Ю 2 20 км ясно +17.4 +5.6 46 +18 +18 1026.4 951.9
СВ 1 20 км ясно +15.6 +5.6 51 +16 +16 1026.6 952.1
Ю 1 20 км ясно +12.8 +5.6 62 +13 +13 1027.7 952.1
С 2 20 км ясно +7.4 +2.8 73 +5 +5 1029.4 952.1
С 3 20 км ясно +7.7 +3.3 74 +5 +5 1029.4 952.1
С 1 20 км ясно +10.1 +4.7 69 +10 +12 1029.4 952.9
С 1 20 км ясно +12.8 +6.4 65 +13 +19 1028.6 952.9 +7.3
С 1 20 км 1/0
[Ci fib]
+16.8 +9.4 62 +18 +28 1027.0 952.6
штиль 0 20 км 1/0
[Ci fib]
+20.0 +11.4 58 +21 +38 комфорт 1026.1 952.5
З 2 20 км 1/0
[Ci fib]
+22.8 +12.5 52 +26 +42 жарко 1024.9 952.1
З 2 20 км 1/0
[Ci fib]
+24.8 +12.8 47 +27 +45 жарко 1023.6 951.4
Ю 3 20 км 1/0
[Ci fib]
+24.5 +19.4 73 +30 +45 очень
душно
1023.1 950.9
Ю 4 20 км 3/0
[Ci fib]
+24.8 +9.7 38 +26 +37 жарко 1022.3 950.2
Ю 5 20 км 4/0
[Ci]
+24.6 +8.5 36 +25 +32 комфорт 1021.9 949.8
Ю 4 20 км 5/0
[Ci]
+23.8 +8.5 38 +24 +31 комфорт 1021.8 949.5
Ю 5 20 км 5/0
[Ci]
+23.5 +9.4 41 +24 +28 комфорт 1021.6 949.3
Ю 4 20 км 5/0
[Ci]
+22.7 +9.7 44 +24 +26 комфорт 1021.8 949.3
Ю 4 20 км 5/0
[Ci]
+21.4 +9.7 47 +23 +23 комфорт 1022.0 949.0
Ю 4 20 км 6/0
[Ci]
+20.0 +9.6 51 +21 +21 комфорт 1022.5 949.0 +24.9
ЮВ 2 20 км 5/0
[Ci]
+18.2 +9.7 58 +19 +19 1022.5 949.0
штиль 0 20 км ясно +15.7 +8.6 63 +16 +16 1023.9 949.3
В 1 20 км ясно +14.1 +8.3 68 +15 +15 1024.2 949.1
С 2 20 км ясно +9.2 +4.9 74 +8 +8 1023.6 947.3
С 2 20 км 3/0
[Ci]
+9.0 +4.7 74 +7 +8 1023.6 947.3
С 2 20 км 3/0
[Ci]
+11.2 +6.0 70 +10 +12 1023.1 947.3
штиль 0 20 км 3/0
[Ci]
+13.8 +7.9 68 +14 +20 1021.6 946.7 +9.0
штиль 0 20 км 3/0
[Ci]
+17.1 +9.6 61 +17 +28 1020.3 946.5
В 2 20 км 3/0
[Ci]
+21.1 +10.5 51 +23 +35 комфорт 1019.3 946.5
Ю 2 20 км 3/0
[Ci]
+24.1 +10.2 41 +25 +41 комфорт 1017.9 945.9
Ю 2 20 км 3/0
[Ci]
+25.2 +9.6 37 +26 +43 жарко 1017.0 945.3
Ю 3 20 км 1/1 1230 м
[Cu med, cong]
+25.4 +9.0 35 +26 +40 жарко 1016.6 944.9
Ю 4 20 км 1/1 1230 м
[Cu med, cong]
+25.2 +8.3 34 +26 +36 жарко 1015.7 944.1
Ю 4 20 км 3/3 1230 м
[Cu med, cong]
+25.0 +8.3 35 +25 +32 комфорт 1015.0 943.4
Ю 4 20 км 3/3 1230 м
[Cu med, cong]
+24.6 +7.9 34 +25 +30 комфорт 1014.8 943.2
Ю 4 20 км 3/3 1230 м
[Cu med, cong]
+24.1 +8.3 36 +25 +28 комфорт 1014.8 943.0
Ю 4 20 км 3/3 1230 м
[Cu med, cong]
+23.6 +8.3 38 +24 +26 комфорт 1014.8 943.0
Ю 3 20 км 3/3 1230 м
[Cu med, cong]
+23.1 +8.5 39 +24 +25 комфорт 1015.1 943.0
Ю 3 20 км 3/3 1000 м
[Cu med, cong]
+22.2 +8.1 40 +23 +23 комфорт 1015.3 943.0 +25.5
Ю 2 20 км 4/4 1230 м
[Cu Sc]
+21.4 +8.5 44 +23 +23 комфорт 1015.2 942.6
Ю 2 20 км 4/4 1230 м
[Cu Sc]
+20.6 +9.0 47 +23 +23 комфорт 1015.2 942.6
Ю 2 20 км 3/3 1230 м
[Cu med, cong]
+19.2 +8.5 50 +21 +21 комфорт 1015.7 942.6
С 2 20 км 4/4 1230 м
[Cu Sc]
+12.2 +9.4 83 +11 +11 1015.8 941.1
С 2 20 км 4/4 1230 м
[Cu Sc]
+11.7 +9.4 86 +11 +11 1015.6 940.9
штиль 0 20 км 5/3 1230 м
[Cu med, cong Ac trans]
+13.8 +10.3 79 +13 +15 1015.1 940.9
С 1 20 км 5/3 1230 м
[Cu med, cong Ac trans]
+15.9 +10.5 70 +17 +20 1014.3 940.6 +11.7
штиль 0 20 км 6/1 1230 м
[Cu med, cong Ac trans Ci]
+20.4 +13.6 65 +22 +30 комфорт 1013.3 940.6
штиль 0 20 км 6/1 1230 м
[Cu med, cong Ac trans Ci]
+21.8 +13.9 61 +25 +36 комфорт 1012.6 940.5
С 2 20 км 5/1 1230 м
[Cu med, cong Ac trans Ci]
+24.5 +15.1 56 +27 +39 жарко 1011.2 939.9
С 2 20 км 5/1 1230 м
[Cu med, cong Ac trans Ci]
+24.6 +14.0 52 +27 +40 жарко 1011.1 939.4
В 2 20 км 4/3 1230 м
[Cu med, cong Ci]
+25.4 +14.7 52 +28 +41 жарко 1010.4 939.4
В 1 20 км 4/4 1230 м
[Cu med, cong]
+26.9 +14.4 46 +29 +42 жарко 1009.7 938.9
Ю 5 20 км 5/5 1230 м
[Cu Sc]
+25.3 +14.3 51 +28 +32 жарко 1009.3 938.1
Ю 2 20 км 6/6 1230 м
[Cu Sc]
+23.9 +15.4 59 +27 +31 жарко 1009.6 938.2
В 2 20 км в посл. час гроза {ливн. дождь} 6/6 1000 м
[Cu Sc]
+22.1 +16.4 70 +26 +29 душно 1010.5 938.5
С 2 20 км 5/4 1230 м
[Cu Sc Ci]
+22.1 +15.4 66 +26 +28 душно 1010.2 938.3
С 2 20 км 8/4 1230 м
[Cu Sc Ci]
+22.5 +16.2 68 +27 +27 душно 1010.4 938.2
С 1 20 км {гроза, дождь} 6/4 1000 м
[Cu Sc Ci]
+21.1 +15.1 69 +24 +24 комфорт 1010.6 938.2 +27.0 1
Ю 1 20 км 5/3 1230 м
[Cu Sc Ci]
+18.1 +13.0 72 +19 +19 1011.4 938.2
штиль 0 20 км 3/3 1230 м
[Cu med, cong]
+17.0 +12.5 75 +17 +17 1012.5 939.0
штиль 0 20 км 3/3 1230 м
[Cu med, cong]
+15.8 +11.7 77 +16 +16 1012.8 939.0
штиль 0 20 км 4/4 1230 м
[Cu Sc]
+12.2 +7.9 75 +12 +12 1013.9 939.0
штиль 0 20 км 5/5 1230 м
[Cu Sc]
+12.4 +7.7 73 +12 +12 1013.9 939.0
штиль 0 20 км 8/5 1230 м
[Cu Sc Ac trans]
+13.0 +8.3 73 +13 +13 1013.9 939.0
штиль 0 20 км 6/4 1000 м
[Cu Sc Ac trans]
+14.4 +9.0 70 +14 +17 1013.4 939.0 +12.1
штиль 0 20 км 8/5 1230 м
[Cu Sc Ac trans]
+16.4 +10.6 69 +16 +20 1012.0 938.5
штиль 0 20 км 9/5 1230 м
[Cu Sc Ac As]
+16.8 +12.0 73 +17 +21 1011.9 938.6
Ю 4 20 км слаб. дождь 9/6 1230 м
[Cu Sc Ac As]
+17.4 +12.7 74 +17 +19 1011.6 938.4
штиль 0 20 км в посл. час дождь 8/5 1230 м
[Cu Sc Ac As]
+18.8 +13.2 70 +20 +27 1011.3 938.5
Ю 4 20 км 6/4 1230 м
[Cu med, cong Ac trans]
+21.0 +14.0 64 +24 +30 комфорт 1010.5 938.3
Ю 5 20 км {дождь} 4/4 1000 м
[Cu med, cong]
+21.6 +13.2 59 +24 +30 комфорт 1009.8 937.9 0.1
Ю 5 20 км 4/3 1230 м
[Cu med, cong Ci]
+21.8 +11.4 52 +24 +29 комфорт 1009.4 937.5
Ю 5 20 км 5/4 1230 м
[Cu Sc Ci]
+22.4 +11.4 50 +25 +28 комфорт 1008.9 937.1
Ю 7 20 км гроза без осадков 8/6 1000 м
[Cb cap Ci]
+22.2 +11.8 52 +25 +25 комфорт 1008.9 937.1
В 3 20 км в посл. час гроза 9/6 1230 м
[Cu Sc Ac trans Ci]
+19.4 +11.4 60 +21 +22 комфорт 1010.4 937.7
В 2 20 км 10/5 1230 м
[Cu Sc Ac lent Ci]
+19.1 +12.1 64 +21 +21 комфорт 1010.8 937.9
В 2 20 км в посл. час гроза 10/5 1000 м
[Cu Sc Ac lent Ci]
+18.5 +12.0 66 +20 +20 1010.8 937.9 +22.5 0.1
В 1 20 км 9/5 1230 м
[Cu Sc Ac trans Ci]
+17.7 +12.0 69 +19 +19 1011.7 938.5
Ю 2 20 км 5/5 1230 м
[Cu Sc Ac trans]
+16.6 +11.4 71 +17 +17 1011.7 938.5
В 1 20 км 8/5 1230 м
[Cu Sc Ac trans]
+15.4 +11.2 76 +16 +16 1012.9 939.1
С 1 20 км ясно +12.0 +7.7 75 +12 +12 1014.0 939.1
С 3 20 км ясно +12.2 +7.3 72 +11 +11 1014.0 939.1
штиль 0 20 км ясно +13.2 +7.9 70 +13 +15 1013.9 939.3
штиль 0 20 км ясно +15.5 +9.8 69 +15 +22 1013.8 939.4 +11.9
штиль 0 20 км ясно +18.8 +10.3 58 +19 +31 опасность
простуды
1012.2 939.4
Ю 2 20 км 1/0
[Ci sp]
+21.1 +10.5 51 +23 +35 комфорт 1012.6 939.4
Ю 2 20 км 3/0
[Ci sp]
+23.3 +10.5 44 +25 +41 комфорт 1012.8 939.4
Ю 2 20 км 3/0
[Ci sp]
+23.1 +9.2 41 +25 +42 комфорт 1011.2 939.4
Ю 4 20 км 3/0
[Ci sp]
+23.0 +8.3 39 +24 +36 комфорт 1011.2 939.4
Ю 3 20 км 1/0
[Ci sp]
+24.2 +7.7 35 +25 +39 комфорт 1010.9 939.4
Ю 4 20 км 1/0
[Ci sp]
+25.2 +8.3 34 +26 +35 жарко 1010.3 939.0
Ю 4 20 км 1/0
[Ci sp]
+25.0 +8.6 35 +25 +33 комфорт 1010.3 939.0
Ю 4 20 км 1/0
[Ci sp]
+24.7 +8.1 35 +25 +30 комфорт 1010.3 939.0
Ю 4 20 км ясно +24.1 +8.5 37 +25 +27 комфорт 1010.2 939.0
Ю 4 20 км ясно +23.6 +8.6 38 +24 +25 комфорт 1010.5 939.0
Ю 3 20 км ясно +22.1 +8.1 41 +23 +23 комфорт 1011.0 939.0 +25.4
Ю 3 20 км ясно +20.8 +8.1 44 +22 +22 комфорт 1011.2 939.0
штиль 0 20 км ясно +19.8 +8.3 47 +21 +21 комфорт 1012.1 939.5
штиль 0 20 км ясно +19.1 +8.5 50 +20 +20 1012.6 939.8
С 2 20 км ясно +11.8 +6.8 71 +11 +11 1016.5 941.7
С 2 20 км 1/1 1230 м
[Cu med, cong]
+14.1 +8.1 67 +14 +16 1016.6 942.3
С 2 20 км 1/1 1230 м
[Cu med, cong]
+16.4 +8.3 59 +17 +21 1016.5 942.7 +11.7
штиль 0 20 км 1/1 1230 м
[Cu med, cong]
+19.9 +11.1 57 +21 +32 комфорт 1015.8 943.0
Ю 2 20 км 3/1 1230 м
[Cu med, cong Ci fib]
+23.6 +13.0 51 +26 +37 жарко 1014.9 943.1
Ю 5 20 км 3/1 1230 м
[Cu med, cong Ci fib]
+24.4 +12.4 47 +26 +34 жарко 1015.1 943.3
Ю 7 20 км 3/1 1230 м
[Cu med, cong Ci fib]
+25.0 +12.0 44 +27 +31 жарко 1015.0 943.4
Ю 5 20 км 3/1 1230 м
[Cu med, cong Ci sp]
+25.8 +11.5 41 +27 +36 жарко 1014.9 943.5
Ю 5 20 км 3/1 1230 м
[Cu med, cong Ci sp]
+26.0 +11.2 40 +27 +35 жарко 1015.1 943.7
Ю 5 20 км 4/1 1230 м
[Cu med, cong Ci]
+26.0 +10.5 38 +27 +34 жарко 1015.2 943.8
Ю 4 20 км 4/1 1230 м
[Cu med, cong Ci]
+26.2 +10.2 37 +27 +33 жарко 1014.7 943.4
Ю 6 20 км 4/1 1230 м
[Cu med, cong Ci]
+25.5 +10.5 39 +26 +29 жарко 1014.7 943.4
Ю 4 20 км 4/1 1230 м
[Cu med, cong Ci]
+24.8 +10.2 40 +26 +28 жарко 1014.7 943.4
Ю 6 20 км 4/1 1230 м
[Cu med, cong Ci]
+24.0 +9.7 40 +25 +25 комфорт 1015.9 943.8
Ю 4 20 км 4/1 1230 м
[Cu med, cong Ci]
+22.4 +9.7 44 +24 +24 комфорт 1016.9 944.3 +26.3
Ю 4 20 км 4/1 1230 м
[Cu med, cong Ci]
+20.3 +9.6 50 +22 +22 комфорт 1018.2 945.0
Ю 2 20 км 1/1 1230 м
[Cu med, cong]
+18.8 +9.6 55 +20 +20 1018.7 945.2
Ю 1 20 км 1/1 1230 м
[Cu med, cong]
+16.8 +9.6 62 +18 +18 1019.9 945.8
Местоположение метеостанции Никшич (Черногория): широта 42.77 долгота 18.95 высота над уровнем моря 647 м.
В архиве по умолчанию представлена погода в Никшиче за последнюю неделю. Архивные данные за месяц целиком и за предыдущие месяцы, начиная с января 2011 года, Вы можете получить, выбрав интересующий диапазон дат из раскрывающегося списка и нажав кнопку "Найти!".
*Определитесь, кто Вы:
Внимание! Время в таблицах - всемирное. Для получения местного времени необходимо прибавить поправку, которая равна 1 ч.
Смотрите также архив погоды в соседних городах и на ближайших метеорологических станциях:
Партнеры нашего сайта:      
Пояснения к столбцам:
  • Ветер - указаны скорость ветра в м/с - средняя за 10 мин, порывы в срок и между сроками (в фигурных скобках) и направление, откуда дует ветер: С - северный,
  • СВ - северо-восточный, В - восточный, ЮВ - юго-восточный, Ю - южный, ЮЗ - юго-западный, З - западный, СЗ - северо-западный.
  • Видимость - горизонтальная дальность видимости в метрах или километрах. При видимости от 1 до 10 км при отсутствии осадков обычно наблюдается дымка, при ухудшении видимости до 1 км и менее - туман. В сухую погоду видимость может ухудшаться дымом, пылью или мглою.
  • Явления - указаны атмосферные явления, наблюдавшиеся в срок или в последний час перед сроком; фигурными скобками обозначены явления, наблюдавшиеся между сроками (за 1-3 часа до срока); квадратными скобками обозначены град или гололедные отложения с указанием их диаметра в мм.
  • Облачность - указаны через наклонную черту общая и нижняя облачность в баллах и высота нижней границы облаков в метрах; квадратными скобками обозначены формы облаков: Ci - перистые, Cs - перисто-слоистые, Cc - перисто-кучевые, Ac - высококучевые, As - высокослоистые, Sc - слоисто-кучевые, Ns - слоисто-дождевые, Cu - кучевые, Cb - кучево-дождевые. Подробнее классификацию облаков см. в Атласе облаков (PDF).
  • T - Температура воздуха - температура, измеренная на высоте 2 м над землей.
  • Td - Температура точки росы - температура, при понижении до которой содержащийся в воздухе водяной пар достигнет насыщения.
  • f - Относительная влажность воздуха - влажноcть воздуха, измеренная на высоте 2 м над землей.
  • Te - Эффективная температура - температура, которую ощущает одетый по сезону человек в тени. Характеристика душности погоды. При расчете учитывается влияние влажности воздуха и скорости ветра на теплоощущения человека.
  • Tes - Эффективная температура на солнце - температура, которую ощущает человек, с поправкой на солнечный нагрев. Характеристика знойности погоды. Зависит от высоты солнца над горизонтом, облачности и скорости ветра. Ночью, в пасмурную погоду, а также при ветре 12 м/с и более поправка равна нулю.
  • P - Атмосферное давление - приведенное к уровню моря атмосферное давление.
  • Po - Атмосферное давление - измеренное на уровне метеостанции атмосферное давление.
  • Tmin - Минимальная температура - минимум температуры воздуха на высоте 2 м над землей.
  • Tmax - Максимальная температура - максимум температуры воздуха на высоте 2 м над землей.
  • R - Количество осадков - Количество выпавших осадков за период времени, мм. При наведении курсора мыши на число - период времени, за который выпало указанное количество осадков.
  • R24 - Количество осадков - Количество выпавших осадков за 24 часа, мм.
  • S - Снежный покров - Высота снежного покрова, см. При наведении курсора мыши на число - состояние снежного покрова и степень покрытия местности в баллах.